Regional Weather Roundup
Issued by NWS

Home | Current Version | Previous Version | Text Only | Print | Product List | Glossary On
Versions: 1 2 3 4 5 6 7 8 9 10 11 12 13 14 15 16 17 18 19 20 21 22 23 24 25 26 27 28 29 30 31 32 33 34 35 36 37 38 39 40 41 42 43 44 45 46 47 48 49 50
000
ASUS43 KLSX 260810
RWRMO

WEATHER SUMMARY FOR MISSOURI
NATIONAL WEATHER SERVICE SPRINGFIELD MO
300 AM CDT FRI AUG 26 2016

NOTE: "FAIR" INDICATES FEW OR NO CLOUDS BELOW 12,000 FEET WITH NO
       SIGNIFICANT WEATHER AND/OR OBSTRUCTIONS TO VISIBILITY.
       CURRENT SKY AND/OR WEATHER CONDITIONS ARE NOT AVAILABLE FOR
       CHILLICOTHE AND FARMINGTON.

MOZ001>031-035>038-043-044-053-054-260900-
...NORTHERN AND WESTERN MISSOURI...

CITY           SKY/WX    TMP DP  RH WIND       PRES   REMARKS
KANSAS CTY INT LGT RAIN  69  64  84 NE7       30.11R
KANSAS C DTWN  LGT RAIN  71  68  90 E7        30.08S
LEE`S SUMMIT   TSTM      70  70 100 E5        30.11R
ST JOSEPH      CLOUDY    68  63  84 NE9       30.11S HAZE
KIRKSVILLE     MOCLDY    68  65  90 NE5       30.12S

$$
MOZ066>068-077>081-088>096-101>105-260900-
...SOUTHWEST MISSOURI...

CITY           SKY/WX    TMP DP  RH WIND       PRES   REMARKS
SPRINGFIELD    FAIR      73  68  84 S7        30.07S
JOPLIN         FAIR      72  68  87 S10       30.07S
BRANSON          N/A     70  68  94 CALM      30.09R

$$
MOZ032>034-039>042-045>050-055>058-069>072-260900-
...CENTRAL MISSOURI...

CITY           SKY/WX    TMP DP  RH WIND       PRES   REMARKS
COLUMBIA       FAIR      73  72  96 NE6       30.07F
JEFFERSON CITY FAIR      73  71  93 CALM      30.06S
ROLLA          FAIR      71  68  90 CALM      30.07F
SEDALIA        CLOUDY    73  71  93 NW7       30.10R
WHITEMAN AFB   CLOUDY    71  71 100 N7        30.09R
OSAGE BEACH    FAIR      69  68  96 N3        30.07F

$$
MOZ051-052-059>065-260900-
...EAST CENTRAL MISSOURI...

CITY           SKY/WX    TMP DP  RH WIND       PRES   REMARKS
ST LOUIS INTL  FAIR      77  70  79 SE7       30.06F
SPIRIT OF STL  FAIR      73  72  96 CALM      30.04F
ST CHARLES     FAIR      72  72 100 NE3       30.05F

$$
MOZ072>076-082>087-097>100-106>115-260900-
...SOUTH CENTRAL AND SOUTHEAST MISSOURI...

CITY           SKY/WX    TMP DP  RH WIND       PRES   REMARKS
CAPE GIRARDEAU FAIR      74  71  91 CALM      30.06F
FARMINGTON     FAIR      72  71  97 CALM      30.08F
POPLAR BLUFF   FAIR      75  74  96 CALM      30.05S FOG
WEST PLAINS    FAIR      75  71  87 CALM      30.09F

$$




USA.gov is the U.S. government's official web portal to all federal, state and local government web resources and services.